Location: Newark
(49.8969°N, 3.3422°E)
Time: 01:55:15
(UTC+00:00)

deb Explorer IX - Pass Details

Date: 20 January 2020
Orbit: 549 x 1099 km, 38.8° (Epoch: 20 February)

Event Time Altitude Azimuth Distance (km) Brightness Sun altitude
Rises 23:01:33 0° 216° (SW) 3,883 - -58.2°
Reaches altitude 10° 23:04:59 10° 202° (SSW) 2,943 - -58.4°
Maximum altitude 23:10:11 21° 156° (SSE) 2,198 - -58.7°
Drops below altitude 10° 23:15:16 10° 110° (ESE) 2,866 - -59.0°
Sets 23:18:33 0° 96° (E) 3,756 - -59.2°
